Station SHBL1 - 8761305 - Shell Beach, LA Image indicating link to RSS feed of recent meteorological observations for station SHBL1


Conditions at SHBL1 as of
(2:18 am CDT)
0718 GMT on 06/23/2024:
     

Click on the graph icon in the table below to see a time series plot of the last five days of that observation.

5-day plot - Wind Direction Wind Direction (WDIR): S ( 170 deg true )
5-day plot - Wind Speed Wind Speed (WSPD): 4.1 kts
5-day plot - Wind Gust Wind Gust (GST): 5.1 kts
5-day plot - Atmospheric Pressure Atmospheric Pressure (PRES):29.99 in
5-day plot - Air Temperature Air Temperature (ATMP): 80.1 °F
5-day plot - Water Temperature Water Temperature (WTMP): 78.3 °F
5-day plot - Wind Speed at 10 Meters Wind Speed at 10 meters (WSPD10M): 3.9 kts
5-day plot - Wind Speed at 20 Meters Wind Speed at 20 meters (WSPD20M): 3.9 kts
5-day plot -  Wind Speed, Wind Gust and Atmospheric Pressure Combined plot of Wind Speed, Gust, and Air Pressure
NOS Water Level Observation Network Water Level
Previous observations
TIME
(CDT)
5-day plot - Wind Direction
WDIR
 
5-day plot - Wind Speed
WSPD
kts
5-day plot - Wind Gust
GST
kts
5-day plot - Wave Height
WVHT
ft
5-day plot - Dominant Wave Period
DPD
sec
5-day plot - Average Wave Period
APD
sec
5-day plot - Mean Wave Direction
MWD
 
5-day plot - Atmospheric Pressure
PRES
in
5-day plot - Pressure Tendency
PTDY
in
5-day plot - Air Temperature
ATMP
°F
5-day plot - Water Temperature
WTMP
°F
5-day plot - Dew Point
DEWP
°F
5-day plot - Salinity
SAL
psu
5-day plot - Visibility
VIS
nmi
5-day plot - Tide (above MLLW)
TIDE
ft
2024-06-23 02:12 am S 4.1 6.0----29.99- 80.2 78.3----
2024-06-23 02:06 am S 5.1 6.0----29.99- 80.2 78.3----
2024-06-23 02:00 am S 6.0 8.0----29.99-0.05 80.6 78.3----
2024-06-23 01:54 am S 6.0 8.0----29.99- 80.6 78.3----
2024-06-23 01:48 am S 7.0 7.0----30.00- 80.6 78.3----
2024-06-23 01:42 am S 6.0 7.0----30.00- 80.4 78.4----
2024-06-23 01:36 am S 4.1 5.1----30.00- 80.6 78.4----
2024-06-23 01:30 am S 5.1 5.1----30.00- 80.6 78.4----
2024-06-23 01:24 am S 4.1 5.1----30.01- 80.6 78.4----
2024-06-23 01:18 am S 4.1 5.1----30.01- 80.8 78.4----
2024-06-23 01:12 am S 4.1 4.1----30.01- 80.8 78.4----
2024-06-23 01:06 am S 4.1 5.1----30.01- 81.0 78.4----
2024-06-23 01:00 am--------- 81.0 78.4----
2024-06-23 12:54 am--------- 81.0 78.4----
2024-06-23 12:48 am S 1.9 4.1----30.02- 81.0 78.6----
2024-06-23 12:42 am S 1.9 2.9----30.02- 81.0 78.6----
2024-06-23 12:36 am S 2.9 2.9----30.02- 81.0 78.6----
2024-06-23 12:30 am-------30.02-- 78.6----
2024-06-23 12:24 am-------30.03-- 78.6----
2024-06-23 12:18 amSSE 4.1 5.1----30.03- 81.3 78.6----
2024-06-23 12:12 amSSE 5.1 6.0----30.03- 81.3 78.6----
2024-06-23 12:06 amSSE 4.1 5.1----30.03- 81.5 78.8----
2024-06-23 12:00 am SE 5.1 6.0----30.03+0.02 81.7 78.8----
2024-06-22 11:54 pm SE 5.1 6.0----30.03- 81.7 78.8----
2024-06-22 11:48 pm SE 4.1 5.1----30.03- 81.5 78.8----
2024-06-22 11:42 pm SE 5.1 6.0----30.03- 81.7 78.8----
2024-06-22 11:36 pm SE 4.1 6.0----30.04- 81.5 78.8----
2024-06-22 11:30 pm SE 6.0 6.0----30.04- 81.9 78.8----
2024-06-22 11:24 pm SE 6.0 6.0----30.04- 81.7 78.8----
2024-06-22 11:18 pm SE 5.1 6.0----30.04-- 79.0----
2024-06-22 11:12 pm SE 5.1 6.0----30.04-- 79.0----
2024-06-22 11:06 pmSSE 5.1 6.0----30.04-- 79.0----
2024-06-22 11:00 pmSSE 5.1 6.0----30.04+0.04 81.9 79.0----
2024-06-22 10:54 pm SE 5.1 6.0----30.04- 81.9 79.0----
2024-06-22 10:48 pm SE 5.1 6.0----30.04- 82.0 79.0----
2024-06-22 10:42 pm SE 6.0 7.0----30.04- 81.9 79.0----
2024-06-22 10:36 pmSSE 5.1 7.0----30.04- 81.9 79.0----
2024-06-22 10:30 pm SE 5.1 7.0----30.03- 81.9 79.0----
2024-06-22 10:24 pm SE 5.1 7.0----30.03- 81.9 79.0----
2024-06-22 10:18 pm SE 6.0 7.0----30.03- 82.0 79.0----
2024-06-22 10:12 pm SE 6.0 7.0----30.03- 82.0 79.0----
2024-06-22 10:06 pm SE 6.0 8.0----30.03- 82.0 79.0----
2024-06-22 10:00 pm-------30.03+0.02- 79.0----
2024-06-22 09:54 pm-------30.03-- 79.0----
2024-06-22 09:48 pm-------30.03-- 79.0----
2024-06-22 09:42 pm-------30.02-- 79.0----
2024-06-22 09:36 pm-------30.02-- 79.0----
2024-06-22 09:30 pm SE 5.1 7.0----30.02- 82.0 79.0----
2024-06-22 09:24 pmSSE 6.0 8.0----30.02- 82.0 79.0----
2024-06-22 09:18 pmSSE 6.0 7.0----30.02- 82.0 79.0----
2024-06-22 09:12 pm SE 6.0 7.0----30.02- 82.0 79.0----
2024-06-22 09:06 pmSSE 8.0 8.9----30.01- 82.2 79.0----
2024-06-22 09:00 pm SE 6.0 8.0----30.01+0.00- 78.8----
2024-06-22 08:54 pm SE 7.0 8.0----30.01-- 78.8----
2024-06-22 08:48 pm SE 6.0 8.9----30.01- 82.2 78.8----
2024-06-22 08:42 pmSSE 7.0 8.9----30.01- 82.4 78.8----
2024-06-22 08:36 pm SE 7.0 9.9----30.01- 82.4 78.8----
2024-06-22 08:30 pm SE 7.0 8.9----30.01-------
2024-06-22 08:24 pm SE 7.0 8.9----30.00-------
2024-06-22 08:18 pm SE 7.0 8.0----30.00- 82.6 78.8----
2024-06-22 08:12 pm SE 7.0 8.0----30.00- 82.6 78.8----
2024-06-22 08:06 pm SE 7.0 8.9----30.00- 82.8 78.8----
2024-06-22 08:00 pm SE 7.0 9.9----30.00+0.00 82.8 78.8----
2024-06-22 07:54 pmSSE 6.0 8.9----30.01- 82.9 78.6----
2024-06-22 07:48 pm SE 6.0 9.9----30.01- 82.9 78.4----
2024-06-22 07:42 pmSSE 7.0 9.9----30.01- 83.3 78.8----
2024-06-22 07:36 pmSSE 8.9 11.1----30.01- 83.3 78.8----
2024-06-22 07:30 pmSSE 8.0 11.1----30.01- 83.5 78.6----
2024-06-22 07:24 pmSSE 8.0 9.9----30.01- 83.5 78.6----
2024-06-22 07:18 pmSSE 7.0 8.9----30.01- 83.8 78.4----
2024-06-22 07:12 pmSSE 7.0 8.9----30.01- 84.0 78.4----
2024-06-22 07:06 pmSSE 8.0 9.9----30.01- 83.8 78.4----
2024-06-22 07:00 pm SE 8.0 11.1----30.01-0.01 84.0 78.6----
2024-06-22 06:54 pm SE 8.0 11.1----30.01- 84.2 78.6----
2024-06-22 06:48 pmSSE 7.0 11.1------- 78.6----
2024-06-22 06:42 pmSSE 8.0 11.1------- 78.4----
2024-06-22 06:36 pmSSE 8.0 11.1------- 78.4----
2024-06-22 06:30 pm SE 7.0 8.9----30.01- 84.6 78.6----
2024-06-22 06:24 pm SE 8.0 9.9----30.01- 84.9 78.8----
2024-06-22 06:18 pm SE 5.1 8.9----30.00- 85.1 79.0----
2024-06-22 06:12 pmESE 7.0 8.9----30.01- 85.1 78.8----
2024-06-22 06:06 pmESE 5.1 8.0----30.01- 84.9 78.8----
2024-06-22 06:00 pm SE 7.0 12.0----30.01-0.02- 78.8----
2024-06-22 05:54 pmESE 6.0 11.1----30.01-- 78.8----
2024-06-22 05:48 pmESE 7.0 8.9----30.01- 85.1 78.8----
2024-06-22 05:42 pm SE 6.0 14.0----30.01- 85.1 79.0----
2024-06-22 05:36 pmESE 6.0 8.0----30.01- 85.3 78.8----
2024-06-22 05:30 pmESE 7.0 8.0----30.01- 85.1 78.4----
2024-06-22 05:24 pmESE 6.0 8.9----30.01- 85.1 79.2----
2024-06-22 05:18 pmESE 7.0 9.9----30.01- 85.1 78.6----
2024-06-22 05:12 pmESE 7.0 8.9----30.01- 85.3 77.9----
2024-06-22 05:06 pmESE 6.0 8.9----30.01- 85.5 77.9----
2024-06-22 05:00 pmESE 8.0 9.9----30.01-0.05 85.3 78.6----
2024-06-22 04:54 pmESE 7.0 11.1----30.01- 84.9 78.8----
2024-06-22 04:48 pmESE 7.0 9.9----30.01- 84.9 78.4----
2024-06-22 04:42 pm E 7.0 8.0----30.01- 84.7 78.4----
2024-06-22 04:36 pm E 7.0 9.9----30.01- 84.6 78.4----
2024-06-22 04:30 pm E 7.0 9.9----30.01-- 78.3----
2024-06-22 04:24 pm E 6.0 8.0----30.01-- 78.4----
2024-06-22 04:18 pm E 6.0 8.9----30.02- 84.9 78.4----
2024-06-22 04:12 pm E 7.0 8.9----30.02- 84.7 78.3----
2024-06-22 04:06 pm E 6.0 8.9----30.02- 84.9 78.3----
2024-06-22 04:00 pm E 6.0 9.9----30.02-0.04 84.7 78.4----
2024-06-22 03:54 pm E 5.1 8.9----30.02- 84.7 78.6----
2024-06-22 03:48 pmESE 8.0 11.1----30.02-- 78.8----
2024-06-22 03:42 pm E 8.0 9.9----30.02-- 78.8----
2024-06-22 03:36 pmESE 8.9 12.0----30.03-- 78.8----
2024-06-22 03:30 pm--------- 84.6 78.8----
2024-06-22 03:24 pm--------- 84.7 78.8----
2024-06-22 03:18 pm E 7.0 9.9----30.03-- 78.8----
2024-06-22 03:12 pm E 9.9 11.1----30.03-- 78.8----
2024-06-22 03:06 pmESE 8.0 9.9----30.03-- 78.6----
2024-06-22 03:00 pm E 8.0 12.0----30.03-0.04 84.6 78.6----
2024-06-22 02:54 pmESE 8.9 9.9----30.03- 84.9 78.8----
2024-06-22 02:48 pm E 7.0 9.9----30.03- 85.1 78.6----
2024-06-22 02:42 pm E 8.0 12.0----30.04- 84.7 78.6----
2024-06-22 02:36 pmESE 8.0 11.1----30.04- 84.7 78.6----
2024-06-22 02:30 pm SE 8.0 12.0----30.04- 84.9 78.6----
2024-06-22 02:24 pmESE 8.9 12.0----30.05- 85.1 78.4----
2024-06-22 02:18 pmESE 8.0 11.1----30.05- 84.7 78.4----
2024-06-22 02:12 pm E 7.0 12.0----30.05- 84.6 78.4----
2024-06-22 02:06 pm E 5.1 9.9----30.05- 84.4 78.4----
2024-06-22 02:00 pmESE 5.1 11.1----30.06-0.03 84.6 78.3----
2024-06-22 01:54 pmESE 7.0 11.1----30.06- 84.6 78.3----
2024-06-22 01:48 pmESE 9.9 12.0----30.06- 84.6 78.4----
2024-06-22 01:42 pmESE 11.1 12.0----30.06- 84.4 78.4----
2024-06-22 01:36 pm E 8.9 11.1----30.06- 84.2 78.4----
2024-06-22 01:30 pm E 6.0 12.0----30.06- 84.4 78.4----
2024-06-22 01:24 pmESE 8.0 12.0----30.06- 84.7 78.4----
2024-06-22 01:18 pmESE 9.9 12.0----30.06- 84.6-----
2024-06-22 01:12 pm E 8.0 9.9----30.06- 84.4-----
2024-06-22 01:06 pm E 11.1 12.0----30.06- 84.4-----
2024-06-22 01:00 pm E 7.0 11.1----30.06-0.03 84.2 78.3----
2024-06-22 12:54 pmENE 8.0 9.9----30.06- 84.2 78.3----
2024-06-22 12:48 pmENE 8.9 9.9----30.06- 84.4 78.1----
2024-06-22 12:42 pmENE 8.0 8.9----30.07- 84.2 78.1----
2024-06-22 12:36 pmENE 7.0 8.0----30.07- 84.4 77.7----
2024-06-22 12:30 pm E 7.0 8.9----30.07- 84.2 77.2----
2024-06-22 12:24 pmENE 6.0 8.0----30.07- 84.2 77.0----
2024-06-22 12:18 pmENE 8.0 11.1----30.07- 84.2 76.6----
2024-06-22 12:12 pmENE 8.0 9.9----30.07- 84.2 76.6----
2024-06-22 12:06 pmENE 8.0 9.9----30.07- 84.0 76.8----
2024-06-22 12:00 pmENE 8.9 11.1----30.08-0.03 84.0 77.2----
2024-06-22 11:54 amENE 7.0 9.9----30.08- 84.2 76.6----
2024-06-22 11:48 amENE 7.0 11.1----30.08- 84.0 76.6----
2024-06-22 11:42 amENE 8.9 9.9----30.08- 84.0 76.6----
2024-06-22 11:36 amENE 8.0 8.9----30.08- 84.0 76.6----
2024-06-22 11:30 am NE 8.9 11.1----30.08- 83.8 76.8----
2024-06-22 11:24 am NE 8.0 8.9----30.08- 83.8 76.5----
2024-06-22 11:18 am NE 8.0 9.9----30.08- 84.0 76.6----
2024-06-22 11:12 amNNE 7.0 8.9----30.08- 83.5 76.6----
2024-06-22 11:06 am NE 6.0 7.0----30.08- 83.7 76.6----
2024-06-22 11:00 am N 5.1 7.0----30.09-0.02 82.4 76.6----
2024-06-22 10:54 am N 6.0 8.9----30.09- 82.2 76.6----
2024-06-22 10:48 am N 7.0 8.0----30.09-- 76.6----
2024-06-22 10:42 am N 7.0 7.0----30.09-- 76.6----
2024-06-22 10:36 am N 6.0 7.0----30.09-- 76.5----
2024-06-22 10:30 amNNE 4.1 6.0----30.09- 82.4 76.5----
2024-06-22 10:24 am NE 6.0 6.0----30.09- 82.9 76.5----
2024-06-22 10:18 am N 5.1 5.1----30.09- 82.0 76.5----
2024-06-22 10:12 am N 4.1 5.1----30.09- 81.7 76.5----
2024-06-22 10:06 amNNE 4.1 5.1----30.09- 81.7 76.5----
2024-06-22 10:00 amNNE 1.9 5.1----30.09+0.00 81.7 76.5----
2024-06-22 09:54 amNNE 2.9 4.1----30.09- 81.7 76.5----
2024-06-22 09:48 amENE 4.1 5.1----30.09- 82.2 76.5----
2024-06-22 09:42 amNNE 5.1 5.1----30.09- 81.5 76.5----
2024-06-22 09:36 amENE 5.1 6.0----30.09- 82.2 76.5----
2024-06-22 09:30 am NE 5.1 6.0----30.09- 82.4 76.5----
2024-06-22 09:24 amENE 5.1 6.0----30.10- 82.2 76.5----
2024-06-22 09:18 am--------- 82.2 76.5----
2024-06-22 09:12 am--------- 82.0 76.5----
2024-06-22 09:06 am--------- 81.1 76.5----
2024-06-22 09:00 am NE 5.1 6.0----30.10+0.03- 76.5----
2024-06-22 08:54 am NE 5.1 6.0----30.10-- 76.5----
2024-06-22 08:48 am NE 6.0 7.0----30.10- 81.3 76.5----
2024-06-22 08:42 am NE 6.0 7.0----30.10- 81.9 76.5----
2024-06-22 08:36 am NE 6.0 7.0----30.10- 81.5 76.5----
2024-06-22 08:30 am NE 5.1 7.0----30.11- 81.7 76.5----
2024-06-22 08:24 am NE 5.1 8.0----30.11- 81.3 76.5----
2024-06-22 08:18 am NE 6.0 7.0----30.11- 81.5 76.5----
2024-06-22 08:12 am NE 6.0 7.0----30.10- 81.7 76.5----
2024-06-22 08:06 am NE 6.0 7.0----30.10- 81.7 76.5----
2024-06-22 08:00 am NE 6.0 8.0----30.10+0.04 81.5-----
2024-06-22 07:54 amENE 6.0 7.0----30.10- 81.1-----
2024-06-22 07:48 amENE 6.0 7.0----30.10-------
2024-06-22 07:42 amENE 5.1 6.0----30.10-------
2024-06-22 07:36 am NE 6.0 7.0----30.10-------
2024-06-22 07:30 amENE 5.1 6.0------- 76.3----
2024-06-22 07:24 am E 6.0 7.0------- 76.3----
2024-06-22 07:18 am E 5.1 6.0----30.09- 81.3 76.3----
2024-06-22 07:12 amENE 5.1 7.0----30.09- 81.3 76.3----
2024-06-22 07:06 amENE 6.0 7.0----30.09- 81.1 76.3----
2024-06-22 07:00 am-------30.09+0.03- 76.3----
2024-06-22 06:54 am-------30.09-- 76.3----
2024-06-22 06:48 amENE 6.0 7.0----30.09- 81.3 76.3----
2024-06-22 06:42 amENE 6.0 8.0----30.08- 81.1 76.3----
2024-06-22 06:36 amENE 7.0 8.0----30.08- 81.0 76.5----
2024-06-22 06:30 amENE 7.0 8.0----30.08- 81.0 76.5----
2024-06-22 06:24 am NE 7.0 8.0----30.08- 81.1 76.5----
2024-06-22 06:18 amENE 7.0 8.0----30.08-- 76.5----
2024-06-22 06:12 amENE 7.0 8.0----30.08-- 76.5----
2024-06-22 06:06 am NE 7.0 8.0----30.08-- 76.5----
2024-06-22 06:00 am NE 7.0 8.0----30.07+0.01 81.0 76.5----
2024-06-22 05:54 amENE 6.0 7.0----30.08- 81.0 76.5----
2024-06-22 05:48 am NE 7.0 8.0----30.07- 81.1 76.5----
2024-06-22 05:42 am NE 7.0 8.9----30.07- 81.0 76.5----
2024-06-22 05:36 am NE 7.0 8.0----30.07- 81.0 76.5----
2024-06-22 05:30 am NE 7.0 8.0----30.07- 81.0-----
2024-06-22 05:24 am NE 7.0 8.0----30.07- 81.0-----
2024-06-22 05:18 amENE 7.0 8.0----30.07- 81.1 76.5----
2024-06-22 05:12 amENE 7.0 8.0----30.07- 81.1 76.5----
2024-06-22 05:06 am NE 7.0 8.0----30.07- 81.1 76.5----
2024-06-22 05:00 am NE 7.0 8.0----30.07-0.01 81.1 76.6----
2024-06-22 04:54 am NE 7.0 8.0----30.07- 81.0 76.6----
2024-06-22 04:48 am NE 7.0 8.0----30.07-- 76.6----
2024-06-22 04:42 am NE 7.0 8.0----30.06-- 76.6----
2024-06-22 04:36 amENE 7.0 8.0----30.06-- 76.6----
2024-06-22 04:30 am NE 7.0 8.0----30.06- 81.1 76.6----
2024-06-22 04:24 amENE 6.0 7.0----30.06- 81.1 76.6----
2024-06-22 04:18 am NE 6.0 8.0----30.06- 81.1 76.6----
2024-06-22 04:12 am NE 6.0 7.0----30.06- 81.1 76.6----
2024-06-22 04:06 am NE 6.0 7.0----30.06- 81.1 76.6----
2024-06-22 04:00 am NE 6.0 8.0----30.06-0.03 81.3 76.8----
2024-06-22 03:54 am NE 5.1 7.0----30.06- 81.1 76.8----
2024-06-22 03:48 am NE 5.1 6.0----30.06- 81.3 76.8----
2024-06-22 03:42 amENE 5.1 7.0----30.06- 81.3 76.8----
2024-06-22 03:36 amENE 5.1 7.0----30.06- 81.3 76.8----
2024-06-22 03:30 amENE 6.0 7.0----30.06-- 76.8----
2024-06-22 03:24 am E 5.1 7.0----30.06-- 76.8----
2024-06-22 03:18 amENE 6.0 7.0----30.06-------
2024-06-22 03:12 am E 6.0 6.0----30.06-------
2024-06-22 03:06 am E 6.0 6.0----30.07-------
2024-06-22 03:00 am E 5.1 7.0----30.06-0.04------
2024-06-22 02:54 am E 6.0 6.0----30.06-------
2024-06-22 02:48 am E 6.0 6.0----30.06- 81.5 77.0----
2024-06-22 02:42 am E 6.0 6.0----30.07- 81.3 77.0----
2024-06-22 02:36 am E 6.0 6.0----30.07- 81.3 77.0----
2024-06-22 02:30 am E 5.1 6.0----30.07- 81.3 77.0----
2024-06-22 02:24 am E 4.1 5.1----30.07- 81.1 77.0----
2024-06-22 02:18 am E 5.1 5.1----30.07- 81.1 77.0----
2024-06-22 02:12 amENE 5.1 5.1----30.07- 81.0 77.0----
2024-06-22 02:06 am E 5.1 5.1----30.07- 81.1 77.0----
2024-06-22 02:00 am E 5.1 5.1----30.08-0.03 81.1 77.0----
2024-06-22 01:54 am E 4.1 5.1----30.08- 81.0 77.0----